sat.trackr.live / text

‹ back to catalog

2024-199S

NORAD 61751 · 2024-199S

PAYLOAD ACTIVE UNKNOWN

§ Identity

Operator
Country
TBD
Launch date
2024-11-04
Launch site
VOSTO
Launch vehicle
Mass (kg)
RCS (m²)

External: N2YO · Heavens-Above · Gunter

§ Orbital elements

Epoch: 2026-09-22T21:42:13.546944Z

Period
93.61 min
Inclination
97.2831°
Eccentricity
0.0008035
Mean motion
15.38303998 rev/d
Perigee alt
445.6 km
Apogee alt
456.6 km
Semi-major
6,829.3 km
B*
1.8244e-4
RAAN
134.6612°
Arg perigee
325.0706°
Mean anomaly
35.0012°
Rev number
15,215

§ Raw data

2024-199S1 61751U 24199S   26265.90432346  .00006811  00000+0  18244-3 0  99942 61751  97.2831 134.6612 0008035 325.0706  35.0012 15.38303998152158

JSON: /api/v1/satellites/61751 · /tle

For live sub-satellite position, see the globe view (requires WebGL).

§ Visibility from observer

Set your observer location to see the next 7 days of passes ≥ 10°. The values pass through the URL so the page stays shareable.

No JS? Fill the form by hand. The geolocation button needs JavaScript.